Location: Poughquag
(41.6090°N, 73.6820°W)
Time: 09:07:36
(UTC-04:00)

ISS - Pass Details

Date: 26 May 2019
Orbit: 408 x 418 km, 51.6° (Epoch: 17 June)

Event Time Altitude Azimuth Distance (km) Brightness Sun altitude
Rises 22:46:58 0° 308° (NW) 2,358 1.3 -20.8°
Reaches altitude 10° 22:49:29 10° 327° (NNW) 1,496 0.2 -21.1°
Maximum altitude 22:51:59 19° 15° (NNE) 1,069 -1.2 -21.3°
Enters shadow 22:53:51 13° 54° (NE) 1,328 -1.2 -21.5°
